Theta_e
296 297 297 298 297 297 297 298 300 298 296 295 296 296 296 297 297 297 297 297 298 298 297 297 298 298 299 299 299 300 301 301 298 300 300 301 303 304 303 305 307 310 310
298 298 298 297 296 296 296 297 300 300 297 296 296 296 296 296 297 297 298 297 297 297 298 298 298 298 298 298 299 300 300 300 301 298 301 303 304 302 303 304 308 311 317
298 297 297 297 296 295 295 296 297 299 298 297 296 296 296 296 297 297 298 297 297 298 298 298 298 298 299 299 299 299 300 300 300 300 300 300 300 301 299 300 300 303 307
297 297 297 297 296 295 294 294 296 298 299 298 297 297 297 297 297 297 297 297 297 297 297 297 298 298 298 298 299 300 300 300 300 300 300 298 297 296 295 292 292 297 294
297 297 297 297 296 295 293 294 295 299 300 298 298 297 297 298 298 298 297 296 297 297 297 297 298 298 298 299 300 300 300 300 299 299 298 295 294 293 292 291 291 291 291
297 297 298 297 296 295 295 295 294 295 299 298 298 298 298 299 300 300 299 298 297 297 297 298 298 298 299 300 300 300 300 300 299 300 298 295 291 291 291 291 292 292 292
296 296 297 297 297 296 295 294 294 293 294 297 298 299 298 298 299 300 302 299 299 298 298 298 298 298 299 299 300 300 301 302 303 301 299 293 290 290 290 290 289 289 288
296 295 295 296 296 297 295 294 294 293 293 293 297 297 298 300 302 302 303 303 300 299 299 299 299 299 299 300 296 294 293 294 297 294 292 289 289 290 289 289 289 290 290
296 294 294 295 295 295 296 295 294 293 293 293 293 297 297 296 297 296 296 297 298 298 300 300 300 300 297 293 292 291 291 292 291 290 290 291 291 291 291 291 290 290 290
295 295 294 294 294 294 294 295 295 293 292 292 292 294 297 296 295 293 291 291 291 292 292 293 293 292 290 289 289 288 288 288 288 289 290 290 291 290 291 291 290 290 290
294 295 294 293 294 293 293 294 293 294 293 292 290 291 295 295 295 295 293 292 292 292 292 292 293 292 292 291 289 289 288 288 288 288 288 289 289 289 289 290 290 290 290
294 295 295 293 292 293 292 292 293 292 292 291 291 291 290 292 295 294 293 293 293 293 293 293 293 293 293 292 291 291 290 289 289 289 289 289 289 289 289 289 289 290 290
294 293 293 294 292 292 292 292 292 292 291 291 291 291 290 290 291 292 292 292 292 291 291 291 291 291 291 291 290 290 289 289 289 289 289 289 289 289 289 289 289 289 289
294 293 293 293 293 292 292 292 292 292 291 291 291 291 291 291 291 290 290 290 290 290 290 290 290 290 290 290 289 289 289 289 289 289 289 289 289 289 289 288 288 288 288
293 293 293 293 292 293 292 292 292 293 292 292 292 292 292 292 293 292 291 291 290 290 289 289 289 289 289 289 289 289 289 289 288 289 289 289 289 289 288 288 288 288 288
294 293 293 293 293 292 292 292 292 292 293 293 293 292 292 293 292 292 292 291 290 290 289 289 289 289 288 288 288 288 289 289 289 289 289 289 288 288 288 288 288 288 287
293 294 293 293 293 292 292 291 291 291 292 292 292 292 292 292 291 291 291 291 290 289 289 289 289 288 288 288 288 289 289 289 289 289 289 288 288 288 288 288 288 287 287
293 293 293 293 293 292 292 291 291 290 290 290 291 292 292 292 291 291 290 289 289 289 289 289 289 289 289 289 289 289 289 288 288 288 288 288 288 288 288 288 288 287 287
294 294 293 292 292 292 292 291 290 290 290 290 290 290 290 290 290 290 290 289 289 289 289 289 289 289 289 289 289 289 288 288 288 288 288 288 288 288 288 288 288 288 288
294 293 293 292 292 291 291 291 290 290 289 290 290 290 290 290 290 289 289 289 289 289 289 289 289 289 289 289 289 289 288 288 288 288 288 288 288 288 288 288 288 288 288
294 293 293 292 292 291 291 291 290 290 290 290 290 291 291 290 289 289 289 289 289 290 290 289 289 289 289 289 289 289 289 288 289 288 288 288 288 288 288 288 289 289 289
294 293 293 293 292 292 291 291 290 290 290 290 290 290 290 290 290 289 289 289 289 289 289 288 288 288 288 288 288 288 288 288 288 288 289 289 288 288 288 289 289 289 289
294 293 292 292 292 291 290 290 291 290 290 290 290 290 290 290 290 290 289 289 289 289 288 288 287 287 288 288 288 288 288 288 288 288 288 288 288 289 289 289 289 289 290
293 293 293 292 292 291 291 290 290 290 290 290 290 290 290 290 290 289 289 289 289 288 288 287 287 286 287 288 288 288 288 288 288 288 288 288 288 288 289 289 289 289 289
293 293 293 292 292 292 291 291 290 290 290 290 290 290 290 289 289 289 289 289 289 288 288 287 287 287 287 287 287 287 288 288 288 288 288 288 288 288 288 288 288 288 288
292 292 292 292 292 292 291 291 290 290 290 290 290 290 289 289 289 289 289 289 289 289 288 288 288 288 288 288 287 287 287 287 287 287 288 288 288 287 288 288 288 288 287
Wind_Speed
42 41 38 37 37 36 35 36 32 30 25 21 19 19 17 16 17 16 19 19 19 17 20 24 23 22 18 27 29 26 20 16 5 10 23 26 24 19 24 22 22 28 31
39 40 38 37 37 37 38 40 35 27 13 14 13 15 13 13 16 18 18 19 18 18 20 20 21 19 22 24 24 17 17 17 15 5 22 11 11 15 16 10 10 12 21
41 40 38 39 38 38 39 39 36 21 5 5 7 10 10 12 12 13 14 18 18 17 17 18 18 19 23 21 22 23 21 18 18 14 6 3 4 6 5 8 16 23 26
41 39 39 40 39 39 39 39 36 27 6 2 3 7 9 11 10 11 11 12 10 12 16 18 16 21 17 15 22 24 17 15 10 10 5 4 2 3 7 12 15 28 20
40 39 39 40 39 40 42 41 39 34 11 7 4 3 7 8 9 11 13 12 12 15 18 14 16 17 15 19 19 13 13 15 14 12 2 4 5 5 7 14 18 25 27
39 39 37 38 39 40 41 43 44 42 25 16 11 5 3 6 8 11 12 16 16 14 14 12 12 12 14 17 20 22 24 22 21 14 11 7 6 15 19 15 13 5 5
38 39 38 37 37 40 40 41 41 39 34 33 29 12 4 6 9 11 11 17 15 15 14 12 13 12 14 17 16 9 12 13 18 27 19 13 19 19 20 23 19 20 11
35 37 39 36 36 34 38 38 38 38 37 36 34 32 27 30 3 9 10 7 19 17 14 11 10 12 14 12 9 17 18 14 8 15 25 25 29 29 31 32 29 28 28
34 36 38 36 36 35 30 33 35 35 37 40 38 35 35 36 32 30 30 29 17 13 4 8 2 8 18 21 30 29 25 27 29 32 35 33 33 37 35 34 22 22 14
34 33 36 36 34 35 36 30 26 31 35 37 38 39 40 40 43 41 40 35 35 35 41 37 35 34 32 34 38 32 34 30 34 34 35 33 31 28 29 30 27 19 14
33 29 32 38 31 34 34 33 33 28 29 29 36 41 37 42 45 44 40 36 32 35 33 33 35 38 40 40 40 37 33 35 35 34 33 32 32 28 20 19 22 26 18
32 30 31 30 36 32 33 33 32 31 29 30 32 27 33 37 40 42 44 43 38 34 31 32 34 35 35 34 33 32 31 28 25 25 26 23 24 26 27 27 24 22 24
29 31 31 28 33 34 32 33 31 30 30 29 29 30 31 32 29 35 38 38 37 36 37 38 37 36 33 33 33 31 29 27 26 25 25 26 26 28 31 31 28 27 27
28 29 28 28 26 33 32 30 32 31 29 28 27 28 28 30 30 30 31 30 29 30 32 36 35 34 33 30 29 30 30 28 27 26 26 28 27 26 25 24 26 28 30
26 26 27 27 28 23 27 32 30 34 33 27 26 28 27 28 32 33 31 30 31 32 32 32 31 30 30 30 29 29 30 28 29 29 28 26 25 24 23 22 23 23 21
25 25 25 26 27 25 23 19 28 31 34 36 35 30 27 29 32 34 35 35 34 33 34 30 29 29 28 27 25 26 31 29 28 27 26 26 26 26 26 25 24 25 23
27 25 26 28 26 26 26 24 21 23 26 34 33 34 33 31 30 31 33 37 35 34 33 30 29 28 26 26 27 29 29 26 26 27 26 26 25 24 24 23 21 19 19
28 24 24 26 26 25 25 24 22 21 23 27 30 30 30 33 33 32 32 34 34 34 32 28 26 25 26 27 27 27 26 27 26 26 26 25 25 25 24 22 21 22 21
24 26 23 23 24 23 23 23 23 23 24 26 28 31 27 26 31 38 37 34 30 30 29 28 27 28 29 28 26 24 23 24 24 25 25 23 21 21 22 20 18 17 16
24 22 21 22 24 24 24 24 24 23 24 26 29 29 26 30 35 32 33 32 31 30 29 29 29 30 29 27 25 24 24 25 24 24 23 23 22 21 20 18 17 16 15
22 21 20 22 23 22 23 23 22 25 25 25 27 26 26 29 27 29 29 31 32 31 30 30 31 30 28 26 25 24 24 25 24 23 24 22 21 19 17 17 18 18 18
21 19 18 19 18 19 21 21 22 24 24 27 26 25 28 32 31 30 31 31 32 32 32 31 30 27 24 24 24 24 24 24 24 23 22 21 21 19 17 18 20 21 20
18 17 17 18 17 18 20 21 21 22 23 25 25 26 28 29 29 29 29 28 31 32 32 32 31 30 26 23 22 22 23 23 21 20 20 20 22 21 20 21 20 21 21
17 15 14 16 16 16 16 17 19 19 20 21 22 23 24 24 25 26 26 27 29 30 31 31 31 31 29 25 23 22 21 21 21 20 20 20 20 20 20 20 19 19 19
15 14 13 13 14 13 13 14 16 16 17 18 19 20 20 21 22 22 23 24 26 28 28 29 30 30 30 28 25 23 20 19 19 18 19 20 21 20 20 21 21 23 24
14 12 11 10 12 12 11 11 13 13 14 14 15 16 17 18 18 19 20 21 24 25 25 26 26 27 27 27 25 23 22 22 21 20 20 21 23 23 22 22 23 24 24
Wind_Direction
332 333 335 338 339 338 334 326 315 279 258 253 248 249 252 244 240 245 245 240 242 250 251 246 260 264 269 248 239 244 242 231 228 268 279 286 287 292 313 308 300 285 268
345 346 348 347 347 346 345 345 347 359 240 251 244 240 241 244 241 248 240 242 248 239 245 248 247 249 257 261 256 242 243 240 248 246 277 257 270 298 305 324 348 308 249
349 351 352 353 353 353 352 351 354 9 333 252 236 229 233 239 243 249 250 239 245 242 245 249 247 245 245 257 265 253 247 243 243 252 275 259 295 316 329 41 47 50 58
352 355 356 357 358 359 357 356 356 355 355 317 244 228 232 236 244 249 249 244 247 254 254 253 248 252 257 257 259 250 249 252 255 276 279 209 196 100 108 64 31 70 31
352 355 359 0 3 4 3 2 4 12 52 43 34 233 246 240 245 239 234 226 250 248 249 259 245 248 253 250 262 279 278 275 276 282 192 176 179 136 118 98 68 68 50
353 359 1 5 8 8 10 13 17 23 40 40 38 31 289 260 252 242 228 228 232 234 234 247 238 244 257 266 270 272 268 262 253 237 211 186 158 138 130 110 101 53 73
358 1 2 6 10 13 14 17 20 23 24 33 28 18 353 304 276 278 268 213 221 239 242 242 244 245 245 252 259 277 285 273 269 229 210 166 139 143 126 100 86 88 69
1 4 5 7 11 13 17 17 20 23 27 26 33 36 35 26 300 269 284 269 217 226 232 242 248 252 251 244 138 90 73 63 92 131 139 127 126 122 112 107 100 92 87
4 7 7 7 12 13 17 25 23 25 29 30 29 39 43 44 48 50 59 59 68 56 323 262 0 91 99 103 98 91 80 87 95 106 108 112 115 121 118 113 90 93 83
3 9 11 10 15 15 11 20 32 33 35 34 33 39 46 51 53 56 58 61 67 65 63 66 72 83 88 83 82 79 77 73 80 86 88 90 91 93 100 102 95 86 93
3 8 14 17 18 20 18 18 24 35 36 37 42 39 46 52 55 58 58 58 64 71 70 73 79 82 83 83 83 79 81 83 79 79 80 82 86 85 85 86 90 97 91
8 10 11 21 23 23 26 26 31 31 37 39 39 40 42 47 58 61 64 65 65 68 72 76 77 77 79 81 83 84 82 79 79 79 79 77 77 74 79 94 100 87 81
11 13 13 17 29 27 29 30 33 36 38 39 41 44 44 43 51 58 64 67 69 73 75 76 74 73 73 73 76 79 77 78 82 84 85 84 85 87 92 91 89 87 82
11 13 14 15 23 37 34 35 39 39 41 40 41 44 47 49 50 52 57 60 62 66 68 69 69 68 69 69 70 71 71 70 72 75 79 89 95 94 91 89 86 84 79
13 16 15 15 22 31 46 43 45 49 51 48 43 50 49 52 56 61 64 64 65 67 68 65 62 61 61 59 59 64 71 75 77 81 83 86 91 96 95 93 92 89 88
12 15 15 14 21 28 35 48 52 55 55 55 54 52 54 61 61 62 65 65 64 62 58 54 54 55 55 55 55 58 66 69 72 78 81 83 83 82 82 82 82 77 69
14 15 18 18 20 26 31 34 34 44 49 52 52 52 54 60 60 62 64 65 62 61 58 56 56 54 53 56 56 59 61 69 73 71 72 73 77 77 79 77 73 74 76
16 20 21 22 25 29 33 36 38 38 39 37 43 48 49 55 57 61 61 61 53 52 55 55 54 53 57 63 68 71 73 75 76 76 77 79 78 78 76 72 68 66 63
14 19 24 27 31 35 37 40 42 43 45 42 39 42 40 49 54 55 54 52 51 50 49 49 50 55 61 67 69 72 73 72 75 76 77 81 81 79 78 78 79 75 72
16 22 28 32 36 39 41 43 44 46 48 46 44 37 39 47 47 44 46 46 46 47 49 51 53 58 64 67 69 71 71 71 72 74 76 77 77 79 80 81 79 76 72
14 24 32 38 40 44 45 45 47 52 51 52 49 45 48 54 51 48 44 45 45 46 50 55 58 63 68 69 67 66 66 67 70 71 74 76 76 76 75 72 68 66 62
15 21 32 34 38 46 51 52 53 55 56 57 54 50 54 57 55 53 52 52 54 56 57 59 61 61 63 68 71 66 66 67 68 70 71 72 75 74 73 68 66 62 57
18 23 35 44 45 52 57 58 58 56 57 59 59 56 54 56 56 57 58 55 56 57 59 60 62 63 66 66 62 63 64 64 66 72 74 72 72 71 67 62 56 54 52
18 24 33 41 43 50 54 59 61 59 60 60 60 59 57 56 56 57 60 61 60 59 59 60 60 61 63 64 63 62 62 69 73 75 75 74 71 67 64 61 55 54 59
17 23 31 39 42 45 53 60 64 62 62 61 62 62 62 61 58 57 58 61 63 60 59 60 59 60 62 62 61 59 58 61 66 71 73 75 73 68 64 62 60 62 62
17 23 30 39 47 46 49 57 65 66 65 63 63 64 64 63 61 58 57 60 62 63 62 60 60 60 60 60 60 61 60 62 66 69 72 74 73 71 71 70 67 66 66